Theta_e
318 319 321 320 319 317 316 315 314 315 316 313 306 306 308 308 306 305 304 305 304 299 300 303 305 306 306 307 309 305 302 303 308 312 311 312 318 321 323 323 324 321 320 321 319 323 326 324 324 327 323 327 332 328
320 319 319 317 315 312 312 311 311 311 313 312 308 306 305 307 306 305 304 304 304 304 302 303 304 304 304 304 303 301 301 304 305 311 311 312 315 315 317 318 319 327 321 326 321 321 322 322 323 321 320 328 329 330
318 315 315 312 309 308 309 309 308 309 310 310 309 307 306 306 306 305 304 304 303 303 302 300 303 305 306 306 304 303 302 302 303 304 306 308 311 314 320 318 320 319 322 327 325 321 321 322 321 321 324 328 328 328
315 311 307 305 306 305 307 307 307 309 310 310 309 308 307 306 306 305 304 304 304 304 307 304 306 307 308 308 306 305 306 306 304 308 308 310 315 315 317 317 321 320 322 323 322 321 321 321 321 320 321 325 327 327
306 304 304 304 305 304 305 306 308 308 309 310 309 308 308 306 305 304 304 304 305 305 307 306 306 308 309 308 307 306 304 306 307 311 311 311 310 314 315 317 320 319 321 323 322 319 319 319 319 320 323 325 326 336
304 303 303 303 304 305 305 306 307 308 309 309 309 308 307 306 305 303 302 308 306 305 308 309 306 307 309 310 308 308 308 307 310 312 314 314 312 317 321 320 316 314 317 319 321 319 319 319 320 322 324 327 334 337
303 303 303 303 304 305 306 307 307 308 308 308 308 308 307 306 304 303 303 307 307 305 309 310 311 308 310 310 312 316 313 313 313 315 318 318 319 318 321 321 319 316 316 316 316 316 319 322 323 324 326 331 330 334
302 303 303 303 304 304 306 306 307 308 308 308 308 308 307 305 305 305 308 307 306 306 307 314 314 309 310 315 318 316 321 322 322 324 323 323 321 322 325 321 319 318 317 317 319 319 320 320 320 321 322 323 325 333
302 302 303 303 303 303 304 306 307 308 308 309 308 305 305 305 305 308 312 312 306 307 313 315 315 314 310 312 314 317 322 327 323 324 324 324 326 327 324 323 323 323 324 324 322 325 325 326 325 326 324 325 335 332
302 302 302 303 304 304 304 305 309 309 308 307 305 307 310 310 311 311 310 311 310 310 311 314 312 314 309 312 317 323 325 326 326 326 323 325 324 322 322 324 323 324 324 324 325 325 327 330 331 332 329 333 335 332
301 302 302 303 304 304 304 306 309 308 306 306 305 304 304 310 309 308 313 315 314 315 313 311 311 313 309 313 315 323 327 326 329 329 329 330 330 332 329 331 331 333 331 328 326 329 329 331 335 335 336 334 335 334
301 302 303 303 304 304 305 307 308 307 305 304 303 303 305 305 305 308 313 318 317 318 312 310 310 309 309 310 321 326 328 328 331 330 334 336 331 327 329 331 332 331 334 332 330 331 332 333 332 335 336 335 334 333
302 302 303 304 305 305 306 308 307 306 304 305 306 308 306 306 311 314 317 318 318 318 315 313 316 315 314 317 325 328 332 329 327 335 335 331 327 327 327 329 331 330 333 337 335 336 336 336 334 335 335 335 336 335
302 303 304 305 306 307 308 308 306 303 304 307 312 310 312 311 312 312 315 316 315 316 315 312 315 317 317 324 327 332 328 328 334 334 331 328 327 324 326 327 329 329 331 334 337 336 335 333 333 331 334 336 336 336
302 304 306 307 308 308 307 306 304 304 304 308 308 310 313 312 311 312 313 312 310 309 312 313 314 316 324 327 328 330 331 334 333 333 330 326 323 322 325 325 325 326 328 329 333 335 333 332 332 332 334 334 333 334
302 306 307 308 308 307 306 304 303 303 304 306 308 310 309 309 309 307 307 306 304 308 310 313 320 325 329 329 331 331 330 333 330 326 325 323 321 320 323 321 323 323 325 325 328 330 331 332 331 330 330 331 332 332
304 307 307 307 307 306 304 304 303 304 306 309 310 307 307 308 309 309 306 306 306 312 315 316 321 325 323 328 329 329 329 328 326 323 321 319 318 319 321 320 320 320 321 321 324 325 326 329 330 329 328 327 327 328
305 307 306 305 306 304 304 303 305 308 309 308 308 307 307 307 308 308 306 304 309 311 314 318 317 323 326 328 328 326 326 324 321 322 319 319 321 322 324 320 321 320 319 319 320 322 325 326 327 328 327 327 327 327
305 306 306 305 304 303 304 304 304 309 309 307 307 307 307 307 307 309 307 305 307 308 311 317 320 323 325 324 324 324 323 321 323 324 320 321 323 323 324 321 321 320 319 319 319 319 319 321 323 326 326 326 324 324
306 305 304 304 303 304 307 309 305 306 308 307 305 306 305 306 306 305 305 304 308 312 316 319 318 319 322 322 322 323 323 322 323 322 323 324 323 323 323 321 319 321 321 320 320 320 320 320 321 323 325 325 324 322
304 304 304 303 303 303 304 307 309 311 309 307 307 307 308 306 308 308 308 305 311 313 316 315 317 319 320 321 323 323 325 324 325 325 326 325 322 321 321 322 322 321 319 318 317 316 317 316 317 320 321 321 322 322
304 304 304 303 304 305 305 305 305 305 305 306 305 305 306 307 307 308 307 312 312 312 311 312 316 317 320 322 323 324 325 327 325 323 323 322 323 321 320 321 319 317 316 316 316 316 316 317 318 318 319 318 320 320
304 304 304 303 305 305 306 305 307 307 309 307 304 308 308 307 307 306 312 311 312 309 311 310 314 317 319 321 322 323 325 326 323 323 324 323 323 324 323 320 319 317 315 316 317 317 316 316 317 317 316 316 316 314
304 304 307 307 305 307 307 307 307 308 307 307 307 310 311 310 311 312 313 310 310 309 314 314 315 318 320 323 322 322 323 326 325 323 324 323 321 321 322 320 319 318 318 316 315 314 315 313 314 314 314 313 313 312
304 305 306 305 308 310 310 310 309 309 311 310 312 311 310 310 316 317 318 314 314 315 316 318 319 319 320 321 320 321 322 324 321 322 324 324 322 321 320 319 318 316 316 315 311 309 308 309 308 308 308 309 308 308
306 307 305 308 310 310 311 312 311 310 309 311 310 309 310 315 318 319 319 317 316 316 316 320 321 321 323 322 324 323 325 325 322 323 325 324 324 323 321 319 317 317 313 311 310 310 310 310 308 307 306 306 306 306
306 309 307 305 305 305 306 307 309 310 312 312 313 314 315 319 320 319 316 317 317 319 321 323 323 322 322 324 323 325 326 326 325 325 326 326 325 325 324 321 319 320 314 312 310 310 310 309 308 308 307 308 309 309
306 307 309 307 305 304 307 308 309 311 312 310 312 316 320 320 319 317 316 319 322 323 322 322 322 324 325 325 324 326 327 326 326 327 327 326 324 324 324 323 323 321 316 314 312 312 312 313 314 314 313 312 312 311
306 306 305 307 306 306 307 308 308 308 307 308 310 314 317 316 314 315 318 321 324 323 322 322 322 322 324 325 325 325 325 325 323 323 322 320 321 323 324 323 322 320 318 316 311 313 314 315 314 315 314 313 313 313
305 303 306 307 308 308 308 305 306 305 304 305 306 309 310 311 315 316 319 321 323 322 321 321 320 320 322 323 323 324 325 325 325 322 321 321 323 324 322 321 320 320 320 318 313 313 314 314 314 315 315 316 318 318
304 303 305 306 307 306 306 304 304 303 304 305 305 307 309 309 314 317 317 318 319 322 321 320 320 320 321 324 323 323 323 326 326 325 324 323 323 322 321 320 321 319 317 314 314 314 314 315 316 317 317 318 319 318
303 305 306 308 307 305 305 306 306 306 306 307 307 306 307 312 316 313 318 320 320 319 320 320 319 320 321 322 325 325 325 325 326 326 325 322 322 323 321 320 320 320 319 318 317 317 317 317 318 318 319 319 319 319
303 303 304 305 305 307 305 306 307 308 307 307 307 306 307 310 313 312 319 320 319 320 321 320 320 321 323 325 323 324 326 326 326 325 326 325 322 321 322 321 321 320 320 320 319 318 318 318 319 319 320 320 319 320
Wind_Speed
27 28 27 27 27 24 23 23 22 22 23 20 16 14 14 13 13 14 6 3 5 3 7 6 4 6 1 3 4 3 4 3 2 1 3 4 3 3 4 4 3 5 5 4 3 4 9 3 4 2 2 2 5 10
28 29 29 29 28 25 23 22 21 21 20 20 17 14 13 12 11 11 4 6 10 6 7 10 23 29 23 15 4 2 3 2 4 0 2 3 2 2 2 4 5 4 5 3 7 5 4 2 3 5 3 3 2 9
29 30 33 32 29 24 23 22 21 20 19 18 16 14 13 11 10 9 10 9 8 4 6 4 6 4 10 25 29 4 3 7 4 5 3 3 5 3 4 5 6 5 4 4 4 1 5 6 6 4 1 3 7 11
32 31 28 25 23 22 21 20 19 18 18 18 16 14 13 12 12 11 11 9 5 5 4 7 7 13 18 19 26 34 19 3 1 2 3 4 3 5 5 7 8 6 1 3 8 6 9 10 4 7 10 8 10 13
25 22 22 22 22 21 20 18 17 17 17 16 15 14 13 13 14 16 19 15 13 3 3 6 26 6 5 10 24 25 24 10 5 3 4 4 4 5 7 3 11 10 16 11 14 9 8 8 9 10 11 13 13 10
20 21 21 21 21 20 19 18 17 17 17 15 14 14 13 12 12 10 3 1 8 11 3 5 6 6 11 13 19 20 21 9 5 4 4 4 7 5 4 7 14 17 14 15 15 18 16 12 13 15 12 12 10 8
21 21 20 20 20 18 17 16 15 15 15 14 14 14 13 11 8 5 3 1 6 8 2 5 5 5 8 8 4 3 10 5 4 3 4 4 5 8 3 13 11 10 14 18 18 16 14 14 11 8 9 9 9 8
22 20 20 20 19 18 16 16 14 14 14 14 14 15 12 15 15 10 4 12 18 5 3 3 5 5 1 4 4 2 2 3 5 3 2 3 1 4 6 9 10 16 20 19 18 15 17 15 11 13 13 9 13 6
19 20 19 19 19 19 16 14 13 13 13 13 15 16 5 2 4 3 4 3 26 4 2 3 3 5 3 3 3 3 2 2 0 2 1 5 1 4 12 10 10 7 6 8 9 7 7 11 13 10 10 11 10 4
19 19 18 19 19 18 14 13 13 13 13 15 8 2 1 2 3 4 3 2 4 3 2 3 2 5 2 2 3 3 2 2 2 2 1 2 4 14 20 18 17 17 17 18 16 15 13 12 10 10 11 12 13 8
19 17 17 18 17 15 13 11 11 11 6 2 2 1 2 4 0 0 2 3 2 3 3 4 6 5 1 3 3 2 3 2 2 1 2 2 3 11 21 21 17 14 12 13 14 10 6 6 4 6 10 8 10 8
19 16 16 17 16 14 10 10 9 5 2 2 4 3 1 2 2 1 3 3 4 4 3 3 5 5 4 3 3 3 2 2 4 3 3 4 5 20 19 17 20 20 12 8 12 11 10 12 9 6 9 9 8 12
16 16 16 16 13 10 8 9 7 5 3 1 2 1 3 2 2 5 5 3 3 3 4 3 4 3 2 4 3 2 3 4 5 2 3 3 12 18 19 16 16 18 20 10 9 10 12 8 10 7 9 9 19 21
17 16 15 13 10 9 6 7 5 4 2 2 3 2 5 4 5 5 3 3 4 4 5 4 3 3 2 2 2 3 2 2 4 4 4 5 16 17 17 15 14 13 14 15 10 7 10 12 13 15 15 11 14 14
17 16 15 12 8 6 7 7 7 5 2 2 2 5 7 5 4 4 5 3 4 4 2 3 2 1 2 3 2 3 5 3 3 3 3 8 15 12 15 14 15 14 13 14 11 11 7 8 11 11 10 18 19 18
16 14 7 6 4 8 9 9 6 4 2 2 4 3 4 1 4 2 3 3 2 3 2 0 2 2 3 2 3 2 5 2 3 3 4 8 11 10 11 11 10 10 12 12 13 12 12 12 10 13 19 20 19 18
13 5 2 3 7 9 11 6 5 3 3 4 4 3 4 4 5 4 4 3 2 2 2 2 3 2 3 2 3 2 2 3 5 7 4 5 7 8 9 7 9 11 10 13 15 19 16 15 18 20 13 15 20 21
6 5 4 6 12 12 5 4 2 3 6 5 4 3 3 3 4 3 3 2 0 1 1 3 1 2 3 1 3 3 3 3 4 5 4 5 5 6 6 5 8 11 11 15 16 17 18 17 13 9 14 17 22 22
14 9 4 12 13 4 4 4 3 3 5 3 4 3 3 4 5 9 4 5 6 3 1 0 2 2 2 1 4 7 5 3 3 3 4 5 6 5 4 8 12 15 16 16 17 13 15 18 13 13 13 16 14 14
8 8 12 16 7 1 3 3 6 3 3 3 3 3 3 4 3 3 3 3 4 3 2 3 4 3 3 3 3 6 6 3 3 3 2 4 7 7 7 8 9 10 13 16 17 16 16 17 18 14 14 16 15 14
11 10 9 8 4 3 3 2 3 3 3 3 3 2 4 2 3 3 3 3 2 3 3 4 4 4 6 4 4 10 8 6 3 3 2 2 5 4 4 8 10 12 11 10 7 9 14 13 12 14 19 20 22 24
5 12 4 6 4 3 3 6 3 4 2 3 3 2 3 3 3 3 3 2 3 4 4 4 3 2 2 4 4 6 9 12 9 5 5 5 1 3 3 6 9 6 9 10 11 10 12 12 14 18 22 21 24 26
10 6 3 4 3 3 4 3 2 3 3 3 3 3 3 3 3 0 1 3 4 4 5 5 4 5 5 6 9 10 13 2 1 2 1 2 3 6 12 10 10 12 7 11 12 15 15 15 17 20 21 24 25 24
4 3 2 4 5 3 1 2 3 3 3 3 2 4 3 3 1 1 2 3 3 2 1 2 3 1 2 1 1 4 1 1 5 5 4 4 3 7 13 13 10 11 16 14 14 15 17 17 16 20 23 21 21 22
2 3 2 4 3 4 3 3 3 2 4 4 2 4 3 2 1 1 2 3 2 2 2 3 2 3 1 1 2 4 0 4 5 3 1 5 12 13 14 15 14 13 17 23 20 21 19 18 19 19 20 19 17 16
3 4 4 3 2 3 3 3 4 5 3 3 5 3 1 1 1 3 2 2 2 2 2 2 2 3 1 3 1 1 4 7 5 5 5 5 8 11 7 5 3 6 11 17 20 18 17 16 18 19 17 16 16 17
3 4 4 3 3 2 3 4 3 2 3 4 3 1 0 2 1 3 3 2 2 3 2 1 3 2 4 4 4 4 5 6 3 2 5 7 4 9 14 14 10 13 16 14 15 17 18 17 17 15 13 10 9 10
3 3 4 3 3 3 3 3 2 3 2 2 2 2 2 1 2 3 4 3 5 1 2 2 2 1 3 2 4 8 8 4 9 15 14 9 8 9 7 7 13 18 18 16 17 16 15 13 11 9 7 6 5 4
3 2 1 3 3 3 5 4 3 3 1 1 1 2 2 3 2 3 4 6 5 4 1 2 1 2 3 4 6 8 7 15 11 5 5 3 2 4 11 15 18 18 17 16 15 13 10 8 8 8 7 6 4 3
4 4 3 3 4 5 4 5 3 2 2 3 2 3 3 3 9 9 8 7 7 7 5 4 4 2 3 7 8 7 9 13 8 6 5 4 7 19 17 18 19 17 16 15 15 13 7 5 4 5 5 6 7 4
1 3 3 3 4 3 4 3 3 3 2 3 3 4 4 3 6 4 8 11 9 5 2 3 7 6 6 8 7 6 5 13 12 9 5 12 21 20 17 18 19 17 16 15 15 11 7 4 1 2 3 5 5 7
3 6 4 3 3 3 1 3 3 3 3 2 3 2 3 2 3 3 2 8 7 6 7 6 7 9 10 10 9 8 4 9 17 15 13 17 19 19 19 18 18 17 15 13 12 10 7 5 3 2 2 5 10 9
3 2 3 3 3 3 3 2 3 3 2 2 4 5 5 5 4 3 3 9 6 9 6 6 4 5 6 9 8 8 9 6 9 12 19 18 17 16 19 19 17 16 14 13 11 9 8 8 7 5 4 10 11 9
Wind_Direction
312 316 316 317 317 314 316 317 317 318 322 329 334 340 347 350 357 0 316 339 25 257 273 238 226 188 234 173 198 276 351 356 324 213 187 257 246 276 316 300 264 195 165 192 156 203 258 249 29 64 286 150 310 331
305 309 313 314 312 309 306 309 312 314 315 322 320 326 330 337 344 346 313 325 313 228 261 275 261 254 247 239 163 226 213 255 240 122 266 304 304 283 198 296 317 284 200 212 191 215 195 130 143 251 265 182 228 290
304 305 308 308 306 306 306 305 305 307 307 313 310 313 315 322 326 327 303 306 309 283 290 313 246 307 246 232 221 179 243 208 225 182 195 246 232 157 210 227 235 263 180 221 323 198 181 266 296 219 42 274 294 302
300 305 309 312 313 310 306 303 302 303 304 306 305 303 306 313 313 308 291 277 278 270 285 280 294 278 279 248 219 217 236 222 174 138 201 231 225 207 230 245 222 216 231 261 264 298 308 292 269 312 315 295 299 304
304 311 315 317 317 314 312 306 298 300 301 301 302 303 305 307 312 307 293 272 236 222 280 288 307 299 176 223 229 225 226 236 238 243 219 226 224 228 254 278 249 217 234 235 255 238 233 264 287 288 292 296 303 303
309 311 314 317 319 317 314 309 300 296 298 298 301 304 302 303 319 326 341 270 192 201 290 312 294 287 287 256 232 226 222 220 197 192 225 224 204 169 230 242 238 236 232 231 246 251 255 263 272 270 274 278 276 293
306 307 311 316 316 314 312 307 303 298 295 295 298 299 295 293 289 252 248 41 159 205 266 299 286 273 299 285 257 239 194 199 191 217 222 240 239 186 244 253 244 235 233 236 236 245 260 248 251 248 239 241 277 293
302 304 309 313 316 311 307 310 307 301 295 295 294 297 290 287 282 274 309 237 213 276 272 283 278 314 269 288 289 226 203 193 207 232 232 246 258 202 252 251 240 234 232 235 231 215 234 249 265 263 255 259 272 241
305 303 304 309 311 312 300 303 302 294 291 298 299 297 287 171 191 273 303 200 197 223 270 236 260 275 344 265 267 304 227 256 267 277 263 313 326 252 262 283 270 243 221 225 217 200 229 247 249 250 244 234 213 175
307 301 302 303 306 308 296 292 301 295 302 298 290 197 220 197 278 139 289 163 171 208 228 253 247 266 357 325 291 295 250 279 289 249 281 256 262 260 273 273 263 262 243 241 237 239 231 231 235 239 215 209 184 177
308 307 302 302 305 306 291 289 293 302 297 254 229 235 25 150 120 285 253 219 164 241 219 245 236 253 239 224 266 250 305 286 281 249 257 263 282 328 333 336 329 308 243 223 224 239 175 208 210 231 197 158 143 148
307 303 305 304 302 299 279 294 269 271 238 288 291 301 297 94 70 248 240 186 207 248 225 215 233 211 267 217 265 252 259 282 281 330 279 336 306 330 338 341 332 335 358 207 210 240 219 209 203 196 141 156 173 172
304 302 301 299 303 296 258 264 256 241 242 258 230 245 95 235 230 214 217 221 234 218 229 235 273 214 270 231 264 268 292 256 298 324 21 280 322 335 339 342 344 340 341 37 99 106 91 122 178 147 157 183 168 156
300 303 299 300 288 281 254 223 211 185 201 231 197 263 211 208 231 205 220 217 243 242 286 239 255 212 242 264 255 278 273 285 339 15 339 324 330 331 334 336 349 351 351 11 50 92 76 85 91 81 61 45 101 104
302 305 302 285 270 221 199 194 177 186 216 253 184 233 223 231 246 228 235 273 262 265 319 305 288 200 286 281 254 299 326 335 46 320 309 325 326 332 337 345 352 2 11 39 58 100 90 70 81 82 60 83 85 94
308 310 283 281 200 180 171 164 170 184 242 243 239 267 244 330 271 221 214 264 271 293 319 228 302 278 251 286 323 353 329 357 314 278 300 317 319 326 333 337 348 2 22 38 49 56 60 61 69 75 67 76 91 107
308 238 272 189 177 175 165 155 173 206 247 239 252 234 257 283 257 261 175 243 269 9 306 344 336 283 294 5 311 295 251 267 290 308 300 291 297 313 319 339 6 14 27 37 45 47 50 64 78 74 70 68 87 92
254 253 247 204 172 152 185 196 211 240 241 236 229 247 210 233 264 266 244 222 201 258 140 233 282 315 291 252 279 255 271 282 272 277 283 301 319 325 337 339 10 27 38 35 45 56 53 55 60 62 78 90 92 97
289 253 227 184 162 170 175 202 197 262 244 265 260 243 232 252 242 254 240 205 207 207 244 142 254 226 253 244 263 289 290 252 283 310 302 300 17 352 356 53 49 45 46 48 50 52 58 66 71 77 90 94 89 92
216 179 171 171 175 212 234 207 194 239 262 252 261 258 223 228 262 250 242 184 176 170 176 202 220 224 193 206 207 272 288 276 287 335 324 355 32 40 25 68 79 71 55 54 51 58 65 59 58 80 103 108 101 90
150 165 175 184 202 257 268 281 246 237 283 274 275 240 260 268 253 231 241 151 137 197 225 224 232 230 222 136 290 289 303 284 247 210 256 302 2 42 73 90 85 76 71 62 60 38 58 55 64 93 96 97 105 108
152 164 140 183 216 230 255 237 249 292 277 261 308 224 267 268 238 223 149 153 211 230 201 208 229 206 290 139 171 289 307 295 276 242 249 237 86 83 74 121 104 88 74 77 84 77 67 71 85 94 98 104 114 118
145 159 175 173 219 221 264 191 235 232 252 263 319 274 247 252 236 52 171 210 245 237 228 232 254 231 210 212 163 235 257 239 280 325 22 40 77 123 118 117 102 99 87 80 96 98 96 100 101 102 100 104 107 104
151 188 230 199 199 253 282 249 223 256 265 265 250 273 264 238 233 149 226 245 251 306 251 230 227 259 296 26 302 252 90 129 96 82 75 118 104 64 118 118 112 114 113 119 107 101 101 98 107 102 103 103 105 104
154 230 202 246 208 220 220 245 222 221 246 226 249 274 266 5 16 286 241 274 304 281 268 286 219 199 181 234 269 294 69 161 151 140 100 92 115 112 99 102 104 115 125 116 110 106 107 105 103 108 110 111 114 116
222 206 197 223 215 231 221 253 210 215 229 245 237 258 8 62 316 256 242 246 241 242 255 240 183 138 121 227 145 11 208 194 163 138 150 152 155 138 131 132 135 116 135 125 125 118 110 106 103 103 106 113 122 124
238 228 205 220 252 278 272 257 248 252 256 224 250 288 297 246 290 273 279 239 242 254 285 347 22 232 198 196 150 144 165 171 181 155 137 151 154 174 164 162 166 157 151 141 133 124 117 114 114 117 122 129 122 110
243 266 227 189 209 212 255 288 268 249 259 274 26 298 346 144 261 250 223 265 255 266 18 2 206 230 280 227 153 126 133 166 136 127 120 112 136 153 172 155 144 146 148 146 146 137 129 127 126 130 136 131 120 110
239 247 203 252 225 244 219 220 244 248 217 64 5 285 268 237 242 236 266 245 234 234 308 342 350 356 219 217 186 168 146 155 158 136 115 116 110 114 145 139 132 137 143 148 156 150 140 124 106 101 104 108 107 94
238 185 215 231 209 221 237 186 232 251 235 219 213 307 293 269 258 265 222 210 209 237 246 274 294 322 272 200 181 183 186 194 194 186 143 165 161 149 150 139 141 150 158 160 161 164 153 134 111 86 65 50 24 18
228 169 224 238 254 243 235 232 248 254 251 241 219 209 240 285 309 270 221 216 219 217 240 277 288 268 221 212 193 180 215 204 199 183 143 161 157 152 149 150 155 157 159 158 161 161 157 155 112 18 13 24 66 107
195 208 201 227 258 265 261 217 217 216 255 236 264 233 310 352 291 284 210 176 175 209 237 248 262 271 250 230 225 218 198 201 198 190 171 169 163 161 163 165 161 165 168 164 161 173 186 199 223 271 342 163 159 156
195 200 210 268 280 269 248 167 211 253 222 241 242 204 205 188 222 258 211 197 214 216 211 284 312 258 242 221 217 229 229 188 167 181 185 180 168 164 173 175 177 181 183 181 187 193 210 230 250 263 240 186 168 156